Date_and_time,latitude,longitude,wind_speed,RelWindDirFrom,WindDirFrom,air_pressure,air_temperature,relative_humidity,Temp,platform_speed_wrt_ground,air_pressure_at_mean_sea_level,platform_orientation
2018-08-16 23:50,51.8836233333333,-96.955125,4.6,7.9,321,991.75,20.8,64,20.44,11.4,1017.71,101.2
2018-08-17 00:00,51.857035,-96.92742,5.2,10.2,348,991.72,20.7,65,20.50,11.4,1017.68,154.6
2018-08-17 00:10,51.8506333333333,-96.8822416666667,12.4,18.2,9,991.65,18.9,72,20.57,10.3,1017.79,154.6
2018-08-17 00:20,51.8529483333333,-96.8739066666667,14.6,20.6,344,991.11,19.1,72,20.62,2.0,1017.13,154.6
2018-08-17 00:30,51.852975,-96.8738466666667,14.5,17.2,334,991.16,19.3,73,20.65,0.0,1017.12,154.6
2018-08-17 00:40,51.8529666666667,-96.8738666666667,13.8,17.2,337,991.23,19.3,73,20.65,0.0,1017.34,154.6
2018-08-17 00:50,51.8529683333333,-96.87383,13.4,16.7,337,991.28,19.3,73,20.66,0.0,1017.40,154.6
2018-08-17 01:00,51.8529666666667,-96.8738333333333,13.1,16.5,340,991.29,19.2,72,20.66,0.0,1017.42,146.4
2018-08-17 01:10,51.8529366666667,-96.873925,11.8,15.6,341,991.37,19.2,74,20.65,0.0,1017.47,146.4
2018-08-17 01:20,51.8529383333333,-96.8739233333333,12.3,16.5,340,991.35,19.0,75,20.64,0.0,1017.41,146.4
2018-08-17 01:30,51.8529516666667,-96.8739566666667,11.8,15.3,338,991.38,18.9,77,20.64,0.0,1017.46,146.4
2018-08-17 01:40,51.8529233333333,-96.8740133333333,12.1,15.3,343,991.33,18.8,76,20.64,0.0,1017.38,146.4
2018-08-17 01:50,51.8430433333333,-96.88114,9.6,14.5,331,991.54,18.9,77,20.63,3.9,1017.60,146.4
2018-08-17 02:00,51.8141333333333,-96.8943683333333,9.0,14.5,310,991.73,19.2,77,20.61,10.8,1017.85,153.9
2018-08-17 02:10,51.7833433333333,-96.8819633333333,3.4,7.5,340,991.88,19.6,75,20.64,11.4,1017.98,153.9
2018-08-17 02:20,51.7569133333333,-96.8506983333333,5.6,8.0,9,991.94,18.9,79,20.74,11.8,1018.08,153.9
2018-08-17 02:30,51.7307216666667,-96.8181666666667,5.7,9.0,15,992.04,18.8,80,20.75,11.9,1018.18,153.9
2018-08-17 02:40,51.7011466666667,-96.7952583333333,4.6,6.9,352,992.17,18.9,79,20.84,11.8,1018.31,153.9
2018-08-17 02:50,51.6712716666667,-96.77498,3.5,6.8,337,992.23,18.9,79,20.85,11.7,1018.37,153.9
2018-08-17 03:00,51.6560083333333,-96.7735316666667,9.5,16.7,326,992.10,19.6,80,20.84,5.5,1018.21,154.6
2018-08-17 03:10,51.6559833333333,-96.7736166666667,14.2,16.7,336,991.91,19.3,82,20.85,0.0,1018.04,154.6
2018-08-17 03:20,51.655985,-96.7736416666667,13.8,15.7,340,992.04,19.3,80,20.85,0.0,1018.18,154.6
2018-08-17 03:30,51.6559683333333,-96.7737966666667,13.2,15.5,337,992.22,19.3,79,20.85,0.0,1018.37,154.6
2018-08-17 03:40,51.6559383333333,-96.7739216666667,12.2,13.9,345,992.34,19.2,80,20.85,0.0,1018.48,154.6
2018-08-17 03:50,51.6559683333333,-96.7738016666667,11.3,13.4,348,992.43,19.0,80,20.85,0.0,1018.57,154.6
2018-08-17 04:00,51.6559783333333,-96.7739216666667,9.7,11.1,353,992.56,18.8,80,20.85,0.0,1018.70,162.5
2018-08-17 04:10,51.655945,-96.7738383333333,9.0,11.0,358,992.63,18.7,78,20.85,0.0,1018.81,162.5
2018-08-17 04:20,51.655975,-96.773995,8.4,11.5,7,992.67,18.5,76,20.85,0.0,1018.85,162.5
2018-08-17 04:30,51.6559983333333,-96.7741016666667,7.9,9.8,13,992.70,18.2,75,20.85,0.0,1018.90,162.5
2018-08-17 04:40,51.6559883333333,-96.7740866666667,8.0,11.0,21,992.73,18.0,75,20.85,0.0,1018.93,162.5
2018-08-17 04:50,51.6560066666667,-96.7740966666667,8.4,10.7,28,992.74,17.9,73,20.85,0.0,1018.92,162.5
2018-08-17 05:00,51.6560383333333,-96.774175,8.5,10.5,31,992.78,17.7,74,20.85,0.0,1018.99,154.7
2018-08-17 05:10,51.656045,-96.7741883333333,9.2,11.3,38,992.77,17.5,74,20.84,0.0,1018.99,154.7
2018-08-17 05:20,51.6560416666667,-96.774205,10.4,13.5,42,992.68,17.4,74,20.83,0.0,1018.90,154.7
2018-08-17 05:30,51.6560716666667,-96.7742383333333,11.2,13.9,44,992.65,17.2,74,20.82,0.0,1018.88,154.7
2018-08-17 05:40,51.656075,-96.7742916666667,12.2,14.9,47,992.72,17.1,73,20.83,0.0,1018.97,154.7
2018-08-17 05:50,51.65609,-96.7743183333333,12.1,15.3,51,992.68,17.0,74,20.85,0.0,1018.94,154.7
2018-08-17 06:00,51.6561033333333,-96.7743133333333,12.7,15.8,55,992.65,16.9,75,20.86,0.0,1018.92,281.5
2018-08-17 06:10,51.6561016666667,-96.7743483333333,13.5,16.1,58,992.60,16.6,75,20.84,0.0,1018.88,281.5
2018-08-17 06:20,51.6561266666667,-96.77434,13.0,16.0,59,992.67,16.3,76,20.81,0.0,1018.99,281.5
2018-08-17 06:30,51.65615,-96.77439,12.9,16.1,63,992.67,16.3,77,20.80,0.0,1019.00,281.5
2018-08-17 06:40,51.6561866666667,-96.774405,13.0,16.0,67,992.70,16.1,78,20.81,0.0,1019.04,281.5
2018-08-17 06:50,51.65619,-96.7743966666667,12.7,15.4,70,992.69,16.1,79,20.79,0.0,1019.04,281.5
2018-08-17 07:00,51.65623,-96.7744283333333,12.8,15.7,72,992.71,15.9,79,20.77,0.0,1019.08,308.8
2018-08-17 07:10,51.6562333333333,-96.774435,12.6,15.1,74,992.82,16.0,79,20.72,0.0,1019.20,308.8
2018-08-17 07:20,51.6562383333333,-96.7744016666667,12.5,15.1,75,992.91,16.0,79,20.69,0.0,1019.29,308.8
2018-08-17 07:30,51.6562766666667,-96.7744333333333,11.9,14.4,74,992.98,16.1,80,20.68,0.0,1019.36,308.8
2018-08-17 07:40,51.6562666666667,-96.7744216666667,11.4,15.1,75,993.12,16.0,80,20.67,0.0,1019.52,308.8
2018-08-17 07:50,51.6563016666667,-96.7744383333333,10.7,12.9,76,993.28,15.9,81,20.67,0.0,1019.69,308.8
2018-08-17 08:00,51.6563266666667,-96.7744533333333,10.6,14.3,75,993.34,15.8,81,20.68,0.0,1019.77,326.4
2018-08-17 08:10,51.6563316666667,-96.77442,11.0,13.1,76,993.34,15.7,82,20.69,0.0,1019.79,326.4
2018-08-17 08:20,51.65634,-96.7744333333333,11.0,13.3,77,993.33,15.7,83,20.70,0.0,1019.78,326.4
2018-08-17 08:30,51.6563466666667,-96.7744583333333,11.7,15.5,79,993.26,15.8,82,20.69,0.0,1019.71,326.4
2018-08-17 08:40,51.65636,-96.7744483333333,12.2,15.4,82,993.23,15.7,83,20.70,0.0,1019.69,326.4
2018-08-17 08:50,51.6563783333333,-96.7744483333333,12.0,15.3,83,993.26,15.6,83,20.71,0.0,1019.73,326.4
2018-08-17 09:00,51.6563833333333,-96.7744333333333,11.3,13.3,83,993.37,15.6,84,20.72,0.0,1019.84,343.6
2018-08-17 09:10,51.6563983333333,-96.77444,11.2,14.1,86,993.38,15.6,84,20.74,0.0,1019.85,343.6
2018-08-17 09:20,51.6563883333333,-96.7744216666667,10.5,13.1,85,993.47,15.6,85,20.74,0.0,1019.94,343.6
2018-08-17 09:30,51.6563883333333,-96.7744233333333,10.7,12.2,84,993.50,15.4,85,20.73,0.0,1019.98,343.6
2018-08-17 09:40,51.6563866666667,-96.774425,10.6,12.1,85,993.51,15.3,86,20.72,0.0,1020.00,343.6
2018-08-17 09:50,51.6564033333333,-96.7744183333333,10.1,11.7,90,993.53,15.2,87,20.71,0.0,1020.03,343.6
2018-08-17 10:00,51.6564183333333,-96.774405,9.5,11.0,90,993.49,15.1,88,20.71,0.0,1020.00,15.6
2018-08-17 10:10,51.6564316666667,-96.7743916666667,8.8,11.0,95,993.54,15.2,89,20.71,0.0,1020.05,15.6
2018-08-17 10:20,51.65645,-96.7743483333333,7.2,8.9,99,993.66,15.2,89,20.71,0.0,1020.17,15.6
2018-08-17 10:30,51.6564833333333,-96.77429,5.8,7.2,111,993.76,15.1,90,20.70,0.0,1020.28,15.6
2018-08-17 10:40,51.6564683333333,-96.7743116666667,6.0,7.5,111,993.73,15.1,90,20.68,0.0,1020.25,15.6
2018-08-17 10:50,51.6564783333333,-96.77433,7.2,8.3,111,993.73,15.2,90,20.68,0.0,1020.25,15.6
2018-08-17 11:00,51.656455,-96.7743366666667,7.3,8.6,105,993.77,15.1,90,20.69,0.0,1020.29,27.1
2018-08-17 11:10,51.656455,-96.7743433333333,7.2,8.3,103,993.78,15.1,91,20.70,0.0,1020.30,27.1
2018-08-17 11:20,51.656455,-96.7743316666667,6.1,7.4,101,993.82,15.1,92,20.70,0.0,1020.35,27.1
2018-08-17 11:30,51.6564566666667,-96.77433,6.6,7.8,107,993.80,15.1,91,20.71,0.0,1020.34,27.1
2018-08-17 11:40,51.6564783333333,-96.774145,6.4,8.6,110,993.77,15.2,92,20.71,0.0,1020.30,27.1
2018-08-17 11:50,51.6411716666667,-96.7550866666667,14.2,19.7,123,993.36,15.4,91,20.73,7.0,1019.88,27.1
2018-08-17 12:00,51.6176283333333,-96.72762,17.3,19.4,122,993.18,14.9,93,20.73,10.5,1019.71,143.1
2018-08-17 12:10,51.5907033333333,-96.712505,16.4,18.3,134,993.28,15.2,93,20.69,10.3,1019.81,143.1
2018-08-17 12:20,51.56302,-96.69845,16.4,18.0,134,993.34,15.5,91,20.69,10.5,1019.86,143.1
2018-08-17 12:30,51.5353116666667,-96.6830066666667,15.6,17.6,133,993.47,15.3,91,20.77,10.6,1020.00,143.1
2018-08-17 12:40,51.5071616666667,-96.668555,16.7,18.0,139,993.47,15.3,91,20.84,10.6,1019.99,143.1
2018-08-17 12:50,51.478785,-96.65417,17.6,20.3,142,993.43,15.0,92,20.85,10.7,1019.96,143.1
2018-08-17 13:00,51.45059,-96.6382466666667,18.2,20.6,141,993.34,14.9,93,20.82,10.8,1019.88,157.6
2018-08-17 13:10,51.4220766666667,-96.6231066666667,16.7,18.9,136,993.53,14.6,94,20.78,10.8,1020.09,157.6
2018-08-17 13:20,51.3933183333333,-96.60991,15.9,18.2,133,993.60,14.9,94,20.88,10.8,1020.15,157.6
2018-08-17 13:30,51.3649533333333,-96.595485,16.4,19.6,135,993.55,15.5,94,20.92,10.7,1020.07,157.6
2018-08-17 13:40,51.3377316666667,-96.5865683333333,15.1,18.5,141,993.66,15.9,91,20.94,10.0,1020.15,157.6
2018-08-17 13:50,51.3099433333333,-96.6037533333333,11.8,13.3,173,993.72,16.1,90,20.98,10.7,1020.22,157.6
2018-08-17 14:00,51.2823433333333,-96.621055,13.5,15.4,173,993.41,16.6,86,21.05,10.7,1019.87,165.6
2018-08-17 14:10,51.2551916666667,-96.630595,14.4,17.6,163,993.35,16.7,86,21.09,10.0,1019.79,165.6
2018-08-17 14:20,51.227245,-96.6153233333333,16.1,18.0,153,993.29,16.8,86,21.11,10.6,1019.73,165.6
2018-08-17 14:30,51.1982416666667,-96.5977733333333,17.1,19.0,156,993.05,17.1,85,21.12,11.2,1019.47,165.6
2018-08-17 14:40,51.1721783333333,-96.6049216666667,14.2,17.8,169,993.23,17.2,83,21.12,9.5,1019.67,165.6
2018-08-17 14:50,51.1626516666667,-96.6102366666667,10.0,15.9,148,993.55,16.8,85,21.18,3.6,1020.02,165.6
2018-08-17 15:00,51.155725,-96.6138533333333,9.3,10.9,149,993.61,16.8,87,21.13,2.6,1020.10,171.2
2018-08-17 15:10,51.14851,-96.6169916666667,8.4,10.4,152,993.64,16.9,87,21.04,2.7,1020.11,171.2
2018-08-17 15:20,51.1378866666667,-96.6202516666667,8.3,12.7,153,993.53,17.0,88,21.11,3.9,1019.96,171.2
2018-08-17 15:30,51.1332616666667,-96.6207916666667,7.5,13.5,154,993.60,17.3,86,21.18,1.7,1020.00,171.2
2018-08-17 15:40,51.133285,-96.6208983333333,5.9,7.8,142,993.65,17.3,86,21.21,0.0,1020.04,171.2
2018-08-17 15:50,51.13328,-96.6208616666667,5.4,6.8,139,993.63,17.4,86,21.23,0.0,1020.00,171.2
2018-08-17 16:00,51.1332816666667,-96.62082,4.6,5.9,145,993.64,17.6,87,21.24,0.0,1019.99,178.0
2018-08-17 16:10,51.1332766666667,-96.62086,5.2,6.5,145,993.58,17.7,87,21.26,0.0,1019.92,178.0
2018-08-17 16:20,51.1332883333333,-96.6207983333333,5.1,6.8,154,993.56,17.8,87,21.28,0.0,1019.89,178.0
2018-08-17 16:30,51.1332916666667,-96.62082,6.0,7.6,151,993.36,18.0,87,21.31,0.0,1019.66,178.0
2018-08-17 16:40,51.1332933333333,-96.6208183333333,6.5,7.9,152,993.25,18.1,86,21.34,0.0,1019.56,178.0
2018-08-17 16:50,51.133315,-96.620775,6.0,7.7,165,993.22,18.2,86,21.35,0.0,1019.53,178.0
2018-08-17 17:00,51.13329,-96.6207333333333,5.8,7.6,155,993.18,18.3,86,21.35,0.0,1019.48,179.6
2018-08-17 17:10,51.1332766666667,-96.62075,5.6,7.1,152,993.11,18.4,85,21.38,0.0,1019.40,179.6
2018-08-17 17:20,51.1170866666667,-96.6239766666667,11.3,17.3,174,992.78,18.5,84,21.39,5.9,1019.04,179.6
2018-08-17 17:30,51.0874233333333,-96.631995,16.1,17.3,180,992.42,18.5,85,21.38,10.8,1018.67,179.6
2018-08-17 17:40,51.05757,-96.6387883333333,16.4,17.4,180,992.33,18.6,87,21.37,10.9,1018.57,179.6
2018-08-17 17:50,51.0277266666667,-96.6457766666667,16.6,17.5,181,992.26,18.8,87,21.28,10.9,1018.48,179.6
2018-08-17 18:00,50.9979083333333,-96.6533583333333,16.6,17.7,185,992.13,19.1,83,21.30,10.9,1018.33,188.9
2018-08-17 18:10,50.9677716666667,-96.659055,16.8,18.3,184,992.04,19.2,84,21.37,10.9,1018.22,188.9
2018-08-17 18:20,50.9377933333333,-96.6674433333333,16.8,17.9,186,991.91,19.4,83,21.38,11.0,1018.08,188.9
2018-08-17 18:30,50.9121933333333,-96.693595,16.3,17.7,201,992.02,19.5,83,21.40,11.0,1018.18,188.9
2018-08-17 18:40,50.8865933333333,-96.7195733333333,16.7,17.7,200,991.95,19.6,82,21.42,10.9,1018.10,188.9
2018-08-17 18:50,50.8601583333333,-96.7431483333333,16.8,17.7,199,991.82,19.8,82,21.45,10.9,1017.95,188.9
2018-08-17 19:00,50.833495,-96.7662433333333,17.1,17.8,199,991.68,19.8,83,21.48,10.9,1017.80,197.0
2018-08-17 19:10,50.8065466666667,-96.7886583333333,17.7,18.8,197,991.60,19.8,83,21.48,11.0,1017.71,197.0
2018-08-17 19:20,50.7805566666667,-96.81392,18.0,18.9,197,991.52,19.9,83,21.46,11.0,1017.63,197.0
2018-08-17 19:30,50.754815,-96.83999,17.9,19.1,193,991.46,20.0,82,21.48,11.0,1017.56,197.0
2018-08-17 19:40,50.7277716666667,-96.8624883333333,17.9,19.1,183,991.23,20.1,77,21.50,11.0,1017.31,197.0
2018-08-17 19:50,50.7014033333333,-96.8870533333333,17.6,18.6,178,991.13,20.4,75,21.56,11.0,1017.18,197.0
2018-08-17 20:00,50.675,-96.9115916666667,17.2,18.4,172,991.02,20.6,72,21.59,11.0,1017.06,201.9
2018-08-17 20:10,50.6473183333333,-96.93013,18.3,21.3,165,990.85,20.8,74,21.48,10.8,1016.86,201.9
2018-08-17 20:20,50.6294366666667,-96.967775,14.8,19.2,179,991.25,20.9,76,21.35,10.7,1017.26,201.9
2018-08-17 20:30,50.6304333333333,-96.9807933333333,8.3,14.1,150,991.43,22.0,70,21.18,3.0,1017.39,201.9
2018-08-17 20:40,50.6304366666667,-96.98077,10.3,11.7,124,991.28,23.7,68,21.05,0.0,1017.16,201.9
2018-08-17 20:50,50.6304366666667,-96.9807683333333,10.1,11.7,126,991.22,22.5,71,20.95,0.0,1017.15,201.9
2018-08-17 21:00,50.6304383333333,-96.9807666666667,9.1,10.8,128,991.19,22.4,72,20.95,0.0,1017.11,209.5
2018-08-17 21:10,50.6304366666667,-96.980765,8.3,11.9,130,991.16,22.5,71,20.89,0.0,1017.08,209.5
2018-08-17 21:20,50.630445,-96.980765,8.3,9.7,121,991.10,22.7,73,20.88,0.0,1017.00,209.5
2018-08-17 21:30,50.6304466666667,-96.980775,9.1,10.2,119,991.04,22.5,74,20.90,0.0,1016.94,209.5
2018-08-17 21:40,50.6304483333333,-96.9807733333333,9.2,10.4,119,990.99,22.6,74,20.95,0.0,1016.88,209.5
2018-08-17 21:50,50.6304466666667,-96.9807716666667,9.5,10.9,121,990.92,22.5,76,20.99,0.0,1016.80,209.5
2018-08-17 22:00,50.6304466666667,-96.9807716666667,9.5,10.7,122,990.79,22.5,77,21.02,0.0,1016.66,213.9
2018-08-17 22:10,50.6304433333333,-96.98077,9.5,11.1,122,990.65,22.5,76,21.03,0.0,1016.51,213.9
2018-08-17 22:20,50.63044,-96.98077,10.4,12.1,122,990.54,22.5,76,21.06,0.0,1016.35,213.9
2018-08-17 22:30,50.6304533333333,-96.9807683333333,9.5,10.7,122,990.48,22.5,77,21.09,0.0,1016.21,213.9
2018-08-17 22:40,50.6304466666667,-96.9807666666667,9.3,10.5,122,990.38,22.6,79,21.13,0.0,1016.16,213.9
2018-08-17 22:50,50.6304466666667,-96.9807633333333,9.5,11.0,122,990.29,22.5,81,21.17,0.0,1016.08,213.9
2018-08-17 23:00,50.6304433333333,-96.98076,9.9,11.0,121,990.20,22.5,82,21.18,0.0,1015.98,224.6
2018-08-17 23:10,50.6304416666667,-96.9807616666667,10.0,11.3,119,990.09,22.6,81,21.20,0.0,1015.85,224.6
2018-08-17 23:20,50.6304416666667,-96.9807633333333,10.1,11.9,119,990.00,22.6,80,21.21,0.0,1015.77,224.6
2018-08-17 23:30,50.6304416666667,-96.9807716666667,10.7,12.2,125,989.95,22.8,76,21.21,0.0,1015.71,224.6
